WB2CMF Weather Reports


Display with metric or nautical units.
time (UTC)temp
F
wind
direction
speed
MPH
gust
MPH
rain 1hr
in
rain 24hr
in
rain mn
in
humidity
%
barometer
mb
20260504203012 62 198 3.0 12.0 0.00 0.00 0.00 45 1010.9
20260504200011 63 141 4.0 12.0 0.00 0.00 0.00 42 1011.0
20260504193011 64 271 4.0 12.0 0.00 0.00 0.00 41 1011.1
20260504190011 64 206 8.0 13.0 0.00 0.00 0.00 39 1011.4
20260504183011 65 211 3.0 12.0 0.00 0.00 0.00 38 1011.7
20260504180011 65 198 5.0 10.0 0.00 0.00 0.00 39 1012.0
20260504173011 64 178 3.0 11.0 0.00 0.00 0.00 40 1012.0
20260504050010 44 336 0.0 0.0 0.00 0.00 0.00 52 1012.4
20260504043009 44 336 0.0 0.0 0.00 0.00 0.00 48 1012.3
20260504040009 45 336 0.0 0.0 0.00 0.00 0.00 44 1012.5
20260504033009 45 336 0.0 0.0 0.00 0.00 0.00 42 1012.3
20260504030009 46 336 0.0 0.0 0.00 0.00 0.00 41 1012.3
20260504023009 47 336 0.0 0.0 0.00 0.00 0.00 39 1012.2
20260504020009 48 336 0.0 0.0 0.00 0.00 0.00 38 1012.1
20260504013009 49 336 0.0 0.0 0.00 0.00 0.00 34 1012.0
20260504010009 50 336 0.0 0.0 0.00 0.00 0.00 31 1011.7
20260504003009 54 336 0.0 1.0 0.00 0.00 0.00 24 1010.8
20260504000009 56 169 0.0 5.0 0.00 0.00 0.00 21 1010.5
20260503233009 57 202 0.0 6.0 0.00 0.00 0.00 20 1010.2
20260503230009 57 349 0.0 7.0 0.00 0.00 0.00 20 1010.1
20260503220009 58 309 1.0 8.0 0.00 0.00 0.00 20 1009.7
20260503213009 57 275 1.0 9.0 0.00 0.00 0.00 22 1009.6
20260503210009 57 311 0.0 8.0 0.00 0.00 0.00 26 1009.7